Location: Champignolles
(47.0543°N, 4.5663°E)
Time: 15:57:40
(UTC+00:00)

Meteor 1-25 Rocket - Pass Details

Date: 30 November 2020
Orbit: 837 x 891 km, 81.2° (Epoch: 27 January)

Event Time Altitude Azimuth Distance (km) Brightness Sun altitude
Rises 16:38:21 0° 352° (N) 3,422 7.2 -7.4°
Reaches altitude 10° 16:40:50 10° 357° (N) 2,489 6.4 -7.8°
Maximum altitude 16:46:22 53° 74° (ENE) 1,054 4.4 -8.6°
Drops below altitude 10° 16:51:55 10° 151° (SSE) 2,507 6.6 -9.5°
Sets 16:54:25 0° 156° (SSE) 3,449 7.4 -9.9°
